Regional Weather Roundup
Issued by NWS

Home | Current Version | Previous Version | Text Only | Print | Product List | Glossary Off
Versions: 1 2 3 4 5 6 7 8 9 10 11 12 13 14 15 16 17 18 19 20 21 22 23 24 25 26 27 28 29 30 31 32 33 34 35 36 37 38 39 40 41 42 43 44 45 46 47 48 49 50

000
ASUS43 KLSX 221357
RWRMO

WEATHER SUMMARY FOR MISSOURI
NATIONAL WEATHER SERVICE SPRINGFIELD MO
900 AM CDT SAT JUL 22 2017

NOTE: "FAIR" INDICATES FEW OR NO CLOUDS BELOW 12,000 FEET WITH NO
       SIGNIFICANT WEATHER AND/OR OBSTRUCTIONS TO VISIBILITY.
       CURRENT SKY AND/OR WEATHER CONDITIONS ARE NOT AVAILABLE FOR
       CHILLICOTHE AND FARMINGTON.

MOZ001>031-035>038-043-044-053-054-221500-
...NORTHERN AND WESTERN MISSOURI...

CITY           SKY/WX    TMP DP  RH WIND       PRES   REMARKS
KANSAS CTY INT MOSUNNY   84  73  69 SW14      29.84R HX  90
LEE`S SUMMIT   SUNNY     86  73  65 SW18      29.85F HX  93
ST JOSEPH      SUNNY     84  76  76 SW10      29.82F HX  93
CHILLICOTHE      N/A     86  76  71 SW5       29.82F HX  96

$$
MOZ066>068-077>081-088>096-101>105-221500-
...SOUTHWEST MISSOURI...

CITY           SKY/WX    TMP DP  RH WIND       PRES   REMARKS
SPRINGFIELD    SUNNY     83  73  72 SW9       29.96R
JOPLIN         SUNNY     87  73  62 S15       29.94R HX  94
BRANSON        SUNNY     84  72  65 SW7       30.00R

$$
MOZ032>034-039>042-045>050-055>058-069>072-221500-
...CENTRAL MISSOURI...

CITY           SKY/WX    TMP DP  RH WIND       PRES   REMARKS
COLUMBIA       NOT AVBL
JEFFERSON CITY SUNNY     87  74  64 SW9       29.87F HX  95
ROLLA          SUNNY     82  73  74 SW16      29.92S
SEDALIA        SUNNY     86  74  67 SW17G26   29.89R HX  94
WARRENSBURG    SUNNY     84  70  61 SW13G22   29.86S

$$
MOZ051-052-059>065-221500-
...EAST CENTRAL MISSOURI...

CITY           SKY/WX    TMP DP  RH WIND       PRES   REMARKS
ST LOUIS INTL  CLOUDY    87  72  60 NW10      29.94R HX  93

$$
MOZ072>076-082>087-097>100-106>115-221500-
...SOUTH CENTRAL AND SOUTHEAST MISSOURI...

CITY           SKY/WX    TMP DP  RH WIND       PRES   REMARKS
CAPE GIRARDEAU SUNNY     85  75  72 W9        29.93R HX  93
POPLAR BLUFF   SUNNY     84  78  82 SW6       29.95R HX  95
WEST PLAINS    SUNNY     84  72  67 W9        30.00R

$$


USA.gov is the U.S. government's official web portal to all federal, state and local government web resources and services.